Погода в Цвикове

Чехия     50°46′36″N   14°38′00″E
темп.,
°C
ветер,
м/с
пор.,
м/с
влажн.,
%
обл.,
%
осадки,
мм/ч
давл.,
гПа
погр.,
м
13 мая, чт
чт1323:00+10ссз3898100 0.9 1007482
02:00+9ссз2798100 1.9 1006435
05:00+10ссз2899100 0.1 1004503
08:00+10сз3998100 1.3 1003580
11:00+10сз3897100 0.3 1003549
14:00+9ссз41096100 0.4 1003588
17:00+9сз2998100 0.4 1003620
20:00+9сз2998100 0.9 1003643
14 мая, пт
пт1423:00+9зсз2999100 0.6 1004706
02:00+8зсз3998100 0.8 1004740
05:00+8зсз31096100 0.1 1004876
08:00+8зсз41192100 0.1 1006897
11:00+8зсз21094100 1.4 1007858
14:00+12з248097 1.8 10071039
17:00+13сз1379100 0.8 1007696
20:00+10с019193 1.4 100810
15 мая, сб
сб1523:00+8ю119537 0.0 100911
02:00+7ю11975 0.0 101013
05:00+6ююв229782 0.0 101021
08:00+9ю2393100 0.0 1010306
11:00+14ююз3371100 0.1 10091000
14:00+15юз4555100 0.5 10081419
17:00+15ююз465911 0.0 10071233
20:00+11ююв268999 0.5 1007153
16 мая, вс
вс1623:00+8ююв2197100 0.7 100726
02:00+8ююз2298100 1.3 100857
05:00+7ю2498100 0.6 1009119
08:00+9ююз369031 0.6 1009459
11:00+13юз5668100 0.4 10091377
14:00+15юз565220 0.6 10081726
17:00+16юз45459 0.0 10062037
20:00+10ююз378774 0.8 1007131
17 мая, пн
пн1723:00+8ююв239564 0.1 100754
02:00+7ююв2397100 0.1 100753
05:00+8ююв2797100 0.0 1007319
08:00+10ююз5991100 0.1 1007551
11:00+11зюз4790100 0.8 1007891
14:00+12зюз58786 2.2 10081188
17:00+13юз576082 0.3 10081182
20:00+10зюз38758 0.5 1009431